GW2474 Weather Reports


time (UTC)temp
C
wind
direction
speed
KPH
gust
KPH
rain 1hr
cm
rain 24hr
cm
rain mn
cm
humidity
%
barometer
mb
20260503021553 6 0 0.0 1.6 0.00 0.00 0.00 60 1016.6
20260503020100 6 0 0.0 1.6 0.00 0.00 0.00 57 1016.4
20260503014604 6 0 0.0 3.2 0.00 0.00 0.00 56 1016.4
20260503013109 7 0 0.0 1.6 0.00 0.00 0.00 55 1016.2
20260503011610 7 315 0.0 1.6 0.00 0.00 0.00 54 1016.2
20260503010122 7 0 0.0 1.6 0.00 0.00 0.00 52 1016.1
20260503004600 7 0 0.0 1.6 0.00 0.00 0.00 50 1016.0
20260503003113 7 0 0.0 3.2 0.00 0.00 0.00 49 1015.9
20260503001610 8 315 1.6 8.0 0.00 0.00 0.00 49 1015.9
20260503000057 8 324 1.6 6.4 0.00 0.00 0.00 48 1015.9
20260502234548 8 308 3.2 12.9 0.00 0.00 0.00 49 1015.9
20260502233051 8 254 1.6 11.3 0.00 0.00 0.00 48 1016.0
20260502231555 8 338 4.8 14.5 0.00 0.00 0.00 47 1016.1
20260502230051 8 306 6.4 14.5 0.00 0.00 0.00 47 1016.1
20260502224552 8 342 4.8 14.5 0.00 0.00 0.00 47 1016.2
20260502223054 8 327 4.8 12.9 0.00 0.00 0.00 46 1016.2
20260502221554 8 342 3.2 12.9 0.00 0.00 0.00 45 1016.3
20260502220053 8 15 4.8 14.5 0.00 0.00 0.00 45 1016.3
20260502214617 8 337 9.7 17.7 0.00 0.00 0.00 44 1016.3
20260502213056 8 270 6.4 16.1 0.00 0.00 0.00 46 1016.3
20260502211604 8 325 8.0 16.1 0.00 0.00 0.00 45 1016.4
20260502210057 8 322 8.0 17.7 0.00 0.00 0.00 44 1016.5
20260502204554 8 279 3.2 19.3 0.00 0.00 0.00 47 1016.5
20260502203105 8 331 11.3 22.5 0.00 0.00 0.00 45 1016.7
20260502201605 8 339 9.7 20.9 0.00 0.00 0.00 45 1016.8
20260502200053 8 319 8.0 16.1 0.00 0.00 0.00 45 1016.9
20260502194557 7 335 6.4 19.3 0.00 0.00 0.00 47 1017.0
20260502193051 7 298 9.7 19.3 0.00 0.00 0.00 45 1017.1
20260502191553 7 321 4.8 20.9 0.00 0.00 0.00 44 1017.2
20260502190054 7 314 4.8 19.3 0.00 0.00 0.00 47 1017.4
20260502184549 7 329 6.4 19.3 0.00 0.00 0.00 48 1017.4
20260502183058 7 346 9.7 22.5 0.00 0.00 0.00 46 1017.4
20260502181557 7 310 8.0 24.1 0.00 0.00 0.00 47 1017.5
20260502180104 7 271 6.4 19.3 0.00 0.00 0.00 49 1017.7
20260502163103 6 330 9.7 20.9 0.00 0.00 0.00 51 1018.5
20260502161557 6 281 8.0 19.3 0.00 0.00 0.00 50 1018.4
20260502160105 6 23 3.2 12.9 0.00 0.00 0.00 53 1018.5
20260502151556 5 316 4.8 16.1 0.00 0.00 0.00 58 1018.1
20260502123055 3 337 8.0 14.5 0.00 0.00 0.00 72 1018.0
20260502121555 3 352 6.4 14.5 0.00 0.00 0.00 74 1017.9
20260502120107 2 11 6.4 14.5 0.00 0.00 0.00 77 1017.8
20260502114634 1 346 3.2 8.0 0.00 0.00 0.00 79 1017.8
20260502113057 1 355 3.2 6.4 0.00 0.00 0.00 80 1017.6
20260502111555 1 322 1.6 6.4 0.00 0.00 0.00 80 1017.6
20260502110053 1 327 1.6 6.4 0.00 0.00 0.00 79 1017.5
20260502104551 1 319 1.6 6.4 0.00 0.05 0.00 79 1017.3
20260502103054 1 300 3.2 11.3 0.00 0.05 0.00 79 1017.2
20260502101614 1 317 4.8 11.3 0.00 0.05 0.00 78 1017.3
20260502100108 1 325 3.2 9.7 0.00 0.05 0.00 78 1017.1
20260502064620 4 305 3.2 11.3 0.00 0.28 0.00 70 1016.6
20260502063111 4 314 6.4 16.1 0.00 0.28 0.00 71 1016.6
20260502061555 4 322 4.8 9.7 0.00 0.28 0.00 74 1016.7
20260502060054 4 318 1.6 6.4 0.00 0.28 0.00 74 1016.7
20260502054552 4 286 3.2 6.4 0.00 0.46 0.00 73 1016.8
20260502053058 4 319 3.2 11.3 0.00 0.46 0.00 73 1016.8
20260502051552 4 325 3.2 11.3 0.00 0.46 0.00 74 1016.8
20260502050049 4 321 3.2 8.0 0.00 0.46 0.00 75 1016.9
20260502044607 4 309 4.8 8.0 0.00 0.58 0.00 75 1016.8
20260502043124 4 300 3.2 8.0 0.00 0.58 0.00 75 1016.7
20260502041604 4 304 1.6 6.4 0.00 0.58 0.00 74 1016.6
20260502040057 4 313 1.6 4.8 0.00 0.58 0.00 75 1016.6
20260502034556 4 313 1.6 4.8 0.00 0.64 0.58 74 1016.6
20260502033051 4 318 1.6 6.4 0.00 0.64 0.58 73 1016.5
20260502031558 5 323 1.6 6.4 0.00 0.64 0.58 72 1016.5
20260502030051 5 324 1.6 6.4 0.00 0.64 0.58 71 1016.4
20260502024549 5 321 3.2 6.4 0.00 0.66 0.58 72 1016.4
20260502023101 5 343 3.2 8.0 0.00 0.66 0.58 73 1016.3